{"data":{"norad_id":56480,"intl_designator":"2023-064AJ","name":"STARLINK-6214","alt_names":[],"object_type":"PAYLOAD","status":"ACTIVE","operator":null,"country":"US","launch_date":"2023-05-10","launch_site_code":"AFWTR","launch_vehicle":null,"mission":null,"orbit_class":"UNKNOWN","rcs_meters":null,"size_class":null,"mass_kg":null,"dimensions":null,"purposes":["comms"],"wikipedia_slug":null,"has_3d_model":false,"image_url":null,"decayed_at":null,"tle_current":{"epoch":"2026-09-20T14:05:07.162944Z","epoch_age_seconds":104504,"freshness":"FRESH","line1":"1 56480U 23064AJ  26263.58688846  .00013482  00000+0  23174-3 0  9997","line2":"2 56480  69.9893 291.6775 0004593 284.4016  75.6660 15.51244862186465","mean_motion":15.51244862,"eccentricity":0.0004593,"inclination_deg":69.9893,"raan_deg":291.6775,"arg_perigee_deg":284.4016,"mean_anomaly_deg":75.666,"bstar":0.00023174,"rev_number":18646,"period_min":92.828671686521,"perigee_km":409.97115541388,"apogee_km":416.20957687242,"semimajor_km":6791.2273661431,"source":"CELESTRAK","updated_at":"2026-09-21T09:00:33.447511Z"}}}